Winfield, KS

5:25 PM CDT on March 22, 2017 (GMT -0500)
Strother

Weather History for KWLD - August, 2013

Change the Weather History Date:

Wednesday, August 28, 2013

  Actual Average Record
Temperature  
Mean Temperature 80 °F -  
Max Temperature 93 °F 90 °F 102 °F (2011)
Min Temperature 70 °F 66 °F 64 °F (2001)
Cooling Degree Days 16    
Growing Degree Days 30 (Base 50)    
Moisture  
Dew Point 71 °F    
Average Humidity 74    
Maximum Humidity 97    
Minimum Humidity 54    
Precipitation  
Precipitation 0.00 in - - ()
Sea Level Pressure  
Sea Level Pressure 30.01 in    
Wind  
Wind Speed 6 mph (SSE)    
Max Wind Speed 12 mph    
Max Gust Speed -    
Visibility 10 miles    
Events      
Averages and records for this station are not official NWS values.
T = Trace of Precipitation, MM = Missing Value Source: NWS Daily Summary

Daily Weather History Graph

Daily Weather History Graph

Search for Another Location

Airport or City:

Trip Planner

Search our weather history database for the weather conditions in past years. The results will help you decide how hot, cold, wet, or windy it might be!

Date:

Astronomy

Aug. 28, 2013 Rise Set
Actual Time 6:55 AM CDT 8:02 PM CDT
Civil Twilight 6:28 AM CDT 8:28 PM CDT
Nautical Twilight 5:56 AM CDT 9:00 PM CDT
Astronomical Twilight 5:23 AM CDT 9:33 PM CDT
Moon 12:08 AM CDT (8/28) 2:37 PM CDT (8/28)
Length of Visible Light 14h 00m
Length of Day
13h 06m
Waning Gibbous, 47% of the Moon is Illuminated
Aug 28
Waning Gibbous
Sep 5
New
Sep 12
First Quarter
Sep 19
Full
Sep 26
Last Quarter

Hourly Weather History & Observations

Time (CDT) Temp. Heat Index Dew Point Humidity Pressure Visibility Wind Dir Wind Speed Gust Speed Precip Events Conditions
12:54 AM 73.9 °F - 69.1 °F 85% 30.02 in 10.0 mi SE 3.5 mph - N/A   Clear
1:54 AM 72.0 °F - 69.1 °F 91% 30.01 in 10.0 mi SSE 3.5 mph - N/A   Clear
2:54 AM 72.0 °F - 69.1 °F 91% 30.00 in 10.0 mi SSE 3.5 mph - N/A   Clear
3:54 AM 71.1 °F - 69.1 °F 93% 30.00 in 10.0 mi SSE 4.6 mph - N/A   Clear
4:54 AM 70.0 °F - 69.1 °F 97% 30.00 in 10.0 mi South 4.6 mph - N/A   Clear
5:54 AM 70.0 °F - 69.1 °F 97% 30.01 in 10.0 mi South 4.6 mph - N/A   Clear
6:54 AM 70.0 °F - 68.0 °F 93% 30.02 in 10.0 mi SSE 3.5 mph - N/A   Clear
7:54 AM 73.0 °F - 70.0 °F 90% 30.04 in 10.0 mi SSE 4.6 mph - N/A   Clear
8:54 AM 77.0 °F - 71.1 °F 82% 30.04 in 10.0 mi South 5.8 mph - N/A   Clear
9:54 AM 80.1 °F 83.2 °F 70.0 °F 71% 30.04 in 10.0 mi SSW 9.2 mph - N/A   Clear
10:54 AM 82.9 °F 88.0 °F 72.0 °F 69% 30.04 in 9.0 mi South 8.1 mph - N/A   Clear
11:54 AM 87.1 °F 92.8 °F 71.1 °F 59% 30.03 in 10.0 mi South 9.2 mph - N/A   Clear
12:54 PM 89.1 °F 96.0 °F 72.0 °F 57% 30.03 in 10.0 mi South 9.2 mph - N/A   Scattered Clouds
1:54 PM 90.0 °F 96.9 °F 72.0 °F 55% 30.01 in 10.0 mi South 11.5 mph - N/A   Mostly Cloudy
2:54 PM 90.0 °F 96.4 °F 71.1 °F 54% 30.00 in 10.0 mi South 10.4 mph - N/A   Scattered Clouds
3:54 PM 89.1 °F 96.0 °F 72.0 °F 57% 29.99 in 10.0 mi South 6.9 mph - N/A   Mostly Cloudy
4:54 PM 91.0 °F 99.3 °F 73.0 °F 55% 29.98 in 10.0 mi SSE 11.5 mph - N/A   Partly Cloudy
5:54 PM 90.0 °F 96.9 °F 72.0 °F 55% 29.97 in 10.0 mi SSE 8.1 mph - N/A   Clear
6:54 PM 88.0 °F 94.7 °F 72.0 °F 59% 29.97 in 10.0 mi South 10.4 mph - N/A   Clear
7:54 PM 84.9 °F 91.4 °F 73.0 °F 67% 29.98 in 10.0 mi SE 5.8 mph - N/A   Clear
8:54 PM 82.0 °F 87.4 °F 73.0 °F 74% 29.99 in 10.0 mi SSE 6.9 mph - N/A   Clear
9:54 PM 82.0 °F 87.4 °F 73.0 °F 74% 29.99 in 10.0 mi SSE 8.1 mph - N/A   Clear
10:54 PM 80.1 °F 84.2 °F 73.0 °F 79% 30.00 in 10.0 mi SSE 6.9 mph - N/A   Clear
11:54 PM 80.1 °F 83.8 °F 72.0 °F 76% 30.00 in 10.0 mi SE 5.8 mph - N/A   Clear